Lexington Weather

Lexington, Massachusetts, USA

44°F
4/22/2024 9:00am 
  • Lexington Conditions: Clear
  • Temperature: 43.5°F / 6.4°CWarmer 3.2°F than last hour.
  • Dew Point: 27.5°FDecreased 0.7°Fsince last hour.
  • Relative Humidity: 53%Decreased 9.0% since last hour.
  • Wind: Calm, 10-min avg: Calm, gust: 2 mph
  • Barometer: 29.96 in Steady
  • Visibility: 10 miles
  • Rain Today: 0.00 in
  •   

Regional Weather Roundup
for Boston, MA

        
000
ASUS41 KBOX 170610
RWRBOX

REGIONAL WEATHER ROUNDUP
NATIONAL WEATHER SERVICE BOSTON/NORTON MA
200 AM EDT WED APR 17 2024

NOTE:  "FAIR" INDICATES FEW OR NO CLOUDS BELOW 12,000 FEET WITH NO 
SIGNIFICANT WEATHER AND/OR OBSTRUCTIONS TO VISIBILITY.

MAZALL-170700-
EASTERN MASSACHUSETTS
  
CITY           SKY/WX    TMP DP  RH WIND       PRES   REMARKS
BOSTON         CLEAR     49  38  65 NE13      30.20R                  
6HR MIN TEMP:  48; 6HR MAX TEMP:  63;                                

BEVERLY        CLEAR     46  37  71 NE5       30.19S                  
LAWRENCE       CLEAR     46  32  58 N3        30.21S                  
BEDFORD        CLEAR     47  31  53 N6        30.18F                  
NORWOOD        CLEAR     53  36  52 E9        30.19R                  
MARSHFIELD     CLEAR     48  39  71 NE7G16    30.18S                  
PLYMOUTH       CLEAR     49  37  63 NE10G24   30.17R                  
TAUNTON        CLEAR     52  35  52 VRB5      30.17R                  
NEW BEDFORD    CLEAR     51  36  56 N7G16     30.16R                  
$$

MAZALL-170700-
CAPE COD AND THE ISLANDS
  
CITY           SKY/WX    TMP DP  RH WIND       PRES   REMARKS
FALMOUTH       CLEAR     48  39  71 NE16      30.15S                  
HYANNIS        CLEAR     48  38  68 NE16G25   30.13S                  
CHATHAM        CLEAR     49  39  68 NE14G24   30.16R                  
PROVINCETOWN   CLEAR     47  41  80 NE12      30.18S                  
NANTUCKET      CLEAR     48  42  80 NW10      30.12F                  
MARTHAS VNYRD  CLEAR     48  41  76 W6        30.13F                  
$$
 
MAZALL-170700-
CENTRAL AND WESTERN MASSACHUSETTS
  
CITY           SKY/WX    TMP DP  RH WIND       PRES   REMARKS
WORCESTER      CLEAR     48  30  49 NE6       30.17F                  
6HR MIN TEMP:  48; 6HR MAX TEMP:  58;                                

FITCHBURG      CLEAR     42  33  70 NW3       30.20S                  
ORANGE         CLEAR     37  35  92 CALM      30.19F                  
SPRINGFIELD    CLEAR     44  33  66 NE3       30.15F                  
WESTFIELD      CLEAR     47  33  58 CALM      30.17F                  
NORTH ADAMS    CLEAR     37  32  82 CALM      30.19F                  
PITTSFIELD     CLEAR     39  29  67 NE3       30.15F                  
$$
 
RIZALL-170700-
RHODE ISLAND
  
CITY           SKY/WX    TMP DP  RH WIND       PRES   REMARKS
PROVIDENCE     CLEAR     53  34  48 N14       30.17R                  
6HR MIN TEMP:  52; 6HR MAX TEMP:  63;                                

NEWPORT        CLEAR     50  35  56 N9        30.15S                  
BLOCK ISLAND   CLEAR     48  40  73 W12       30.17S                  
SMITHFIELD     CLEAR     48  33  56 NE8       30.17S                  
WESTERLY       PTCLDY    49  39  68 CALM      30.17R                  
$$
 
CTZALL-170700-
CONNECTICUT
  
CITY           SKY/WX    TMP DP  RH WIND       PRES   REMARKS
BRADLEY INTL   CLEAR     52  30  43 N6        30.17F                  
6HR MIN TEMP:  52; 6HR MAX TEMP:  63;                                

HARTFORD       CLEAR     48  36  63 CALM      30.17S                  
PLAINVILLE     FAIR      45  36  72 CALM      30.16F                  
BRIDGEPORT     PTCLDY    49  40  71 CALM      30.16F                  
DANBURY        PTCLDY    44  35  70 CALM      30.18F                  
GROTON         PTCLDY    47  41  80 CALM      30.17S                  
NEW HAVEN      PTCLDY    49  41  74 N3        30.16F                  
CHESTER        PTCLDY    48  32  53 CALM      30.17F                  
MERIDEN        CLEAR     44  36  73 CALM      30.17S                  
WILLIMANTIC    CLEAR     41  36  82 CALM      30.18R                  
OXFORD         PTCLDY    47  30  51 CALM      30.17F                  
$$

MEZ002-015-021-024-NHZ003-005-008-011-012-014-VTZ005-008-170700-
NORTHERN NEW ENGLAND
  
CITY           SKY/WX    TMP DP  RH WIND       PRES   REMARKS
PORTLAND ME    CLEAR     40  27  59 N7        30.22R                  
6HR MIN TEMP:  39; 6HR MAX TEMP:  55;                                

BANGOR ME      CLOUDY    38  25  59 W6        30.18R                  
CONCORD NH     CLEAR     44  31  60 NW5       30.20S                  
MANCHESTER NH  CLEAR     46  31  55 CALM      30.19R                  
NASHUA NH      CLEAR     48  32  53 NW3       30.20F                  
PORTSMOUTH NH  CLEAR     46  31  55 NE7       30.19S                  
JAFFREY NH     CLEAR     38  32  79 CALM      30.18F                  
KEENE NH       CLEAR     37  35  92 S3        30.19F                  
BURLINGTON VT  PTCLDY    39  27  62 N7        30.24S                  
MT. WASHINGTON BLWGSNOW  18  18 100 NW51        N/A  VSB 1/16WCI  -6  
$$

NYZ052-076-170700-
EASTERN NEW YORK
  
CITY           SKY/WX    TMP DP  RH WIND       PRES   REMARKS
ALBANY         PTCLDY    47  32  56 N5        30.19F                  
6HR MIN TEMP:  46; 6HR MAX TEMP:  58;                                

NEW YORK CITY  MOCLDY    53  40  61 NE5       30.15F                  
6HR MIN TEMP:  53; 6HR MAX TEMP:  64;                                

$$
 
ANZALL-170700-
MARINE OBSERVATIONS
  
STATION/POSITION TIME  TEMP    WIND        PRES    VSBY  WAVE
                       AIR SEA DIR/SP/G                  HT/PER
                 (UTC) (F)     (DEG/KT/KT) (MB)    (MI)  (FT/S)
BOSTON BUOY      0550   47      50/ 12/ 14 1022.2S         2/ 9
BUZZARDS BAY     0500   50     260/ 18/ 19 1021.0F
NANTUCKET SOUND  0550   49 47  340/  8/ 10 1020.4R         1
MASS BAY-STELLWA 0404   49 45   40/ 10/ 12 1022.1R  1 7/8  2/ 8
ISLE OF SHOALS   0500   47      50/ 13/ 13 1021.9R
S OF BLOCK IS    0526      45                N/A           4/ 8
$$

......................KEY.........................
  SKY/WX - SKY CONDITION/PRESENT WEATHER
  TMP    - TEMPERATURE IN FAHRENHEIT
  DWPT   - DEWPOINT IN FAHRENHEIT
  RH     - RELATIVE HUMIDITY IN PERCENT
  WIND   - DIRECTION AND SPEED IN MPH
  PRES   - MEAN SEA LEVEL PRESSURE IN INCHES OF HG
  WCI    - WIND CHILL INDEX
  VSB    - VISIBILITY IN MILES
  HX     - HEAT INDEX
  TC     - TEMPERATURE IN CELSIUS
  VRB    - VARIABLE WIND DIRECTION
  N/A    - NOT AVAILABLE
  
      

Other recent Regional Weather Roundups

Mon Apr 22, 8:10am EDT

Mon Apr 22, 7:10am EDT

Mon Apr 22, 6:10am EDT

Mon Apr 22, 5:10am EDT

Mon Apr 22, 4:10am EDT

Mon Apr 22, 3:10am EDT

Mon Apr 22, 2:10am EDT

Mon Apr 22, 1:10am EDT

Mon Apr 22, 12:10am EDT

Sun Apr 21, 11:10pm EDT

Sun Apr 21, 10:10pm EDT

Sun Apr 21, 9:10pm EDT

Sun Apr 21, 8:10pm EDT

Sun Apr 21, 7:10pm EDT

Sun Apr 21, 6:10pm EDT

Sun Apr 21, 5:10pm EDT

Sun Apr 21, 4:10pm EDT

Sun Apr 21, 3:10pm EDT

Sun Apr 21, 2:10pm EDT

Sun Apr 21, 1:10pm EDT

Sun Apr 21, 12:10pm EDT

Sun Apr 21, 11:10am EDT

Sun Apr 21, 10:10am EDT

Sun Apr 21, 9:10am EDT

Sun Apr 21, 8:10am EDT

Sun Apr 21, 7:10am EDT

Sun Apr 21, 6:10am EDT

Sun Apr 21, 5:10am EDT

Sun Apr 21, 4:10am EDT

Sun Apr 21, 3:10am EDT

Sun Apr 21, 2:10am EDT

Sun Apr 21, 1:10am EDT

Sun Apr 21, 12:10am EDT

Sat Apr 20, 11:10pm EDT

Sat Apr 20, 10:10pm EDT

Sat Apr 20, 9:10pm EDT

Sat Apr 20, 8:10pm EDT

Sat Apr 20, 7:10pm EDT

Sat Apr 20, 6:10pm EDT

Sat Apr 20, 5:10pm EDT

Sat Apr 20, 4:10pm EDT

Sat Apr 20, 3:10pm EDT

Sat Apr 20, 2:10pm EDT

Sat Apr 20, 1:10pm EDT

Sat Apr 20, 12:10pm EDT

Sat Apr 20, 11:10am EDT

Sat Apr 20, 10:10am EDT

Sat Apr 20, 9:10am EDT

Sat Apr 20, 8:10am EDT

Sat Apr 20, 7:10am EDT

Sat Apr 20, 6:10am EDT

Sat Apr 20, 5:10am EDT

Sat Apr 20, 4:10am EDT

Sat Apr 20, 3:10am EDT

Sat Apr 20, 2:10am EDT

Sat Apr 20, 1:10am EDT

Sat Apr 20, 12:10am EDT

Fri Apr 19, 11:10pm EDT

Fri Apr 19, 10:10pm EDT

Fri Apr 19, 9:10pm EDT

Fri Apr 19, 8:10pm EDT

Fri Apr 19, 7:10pm EDT

Fri Apr 19, 6:10pm EDT

Fri Apr 19, 5:10pm EDT

Fri Apr 19, 4:10pm EDT

Fri Apr 19, 3:10pm EDT

Fri Apr 19, 2:10pm EDT

Fri Apr 19, 1:10pm EDT

Fri Apr 19, 12:10pm EDT

Fri Apr 19, 11:10am EDT

Fri Apr 19, 10:10am EDT

Fri Apr 19, 9:10am EDT

Fri Apr 19, 8:10am EDT

Fri Apr 19, 7:10am EDT

Fri Apr 19, 6:10am EDT

Fri Apr 19, 5:10am EDT

Fri Apr 19, 4:10am EDT

Fri Apr 19, 3:10am EDT

Fri Apr 19, 2:10am EDT

Fri Apr 19, 1:10am EDT

Fri Apr 19, 12:10am EDT

Thu Apr 18, 11:10pm EDT

Thu Apr 18, 10:10pm EDT

Thu Apr 18, 9:10pm EDT

Thu Apr 18, 8:10pm EDT

Thu Apr 18, 7:10pm EDT

Thu Apr 18, 6:10pm EDT

Thu Apr 18, 5:10pm EDT

Thu Apr 18, 4:10pm EDT

Thu Apr 18, 3:10pm EDT

Thu Apr 18, 2:10pm EDT

Thu Apr 18, 1:10pm EDT

Thu Apr 18, 12:10pm EDT

Thu Apr 18, 11:10am EDT

Thu Apr 18, 10:10am EDT

Thu Apr 18, 9:10am EDT

Thu Apr 18, 8:10am EDT

Thu Apr 18, 7:10am EDT

Thu Apr 18, 6:10am EDT

Thu Apr 18, 5:10am EDT

Thu Apr 18, 4:10am EDT

Thu Apr 18, 3:10am EDT

Thu Apr 18, 2:10am EDT

Thu Apr 18, 1:10am EDT

Thu Apr 18, 12:10am EDT

Wed Apr 17, 11:10pm EDT

Wed Apr 17, 10:10pm EDT

Wed Apr 17, 9:10pm EDT

Wed Apr 17, 8:10pm EDT

Wed Apr 17, 7:10pm EDT

Wed Apr 17, 6:10pm EDT

Wed Apr 17, 5:10pm EDT

Wed Apr 17, 4:10pm EDT

Wed Apr 17, 3:10pm EDT

Wed Apr 17, 2:10pm EDT

Wed Apr 17, 1:10pm EDT

Wed Apr 17, 12:10pm EDT

Wed Apr 17, 11:10am EDT

Wed Apr 17, 10:10am EDT

Wed Apr 17, 9:10am EDT

Wed Apr 17, 8:10am EDT

Wed Apr 17, 7:10am EDT

Wed Apr 17, 6:10am EDT

Wed Apr 17, 5:10am EDT

Wed Apr 17, 4:10am EDT

Wed Apr 17, 3:10am EDT

Wed Apr 17, 1:10am EDT

Wed Apr 17, 12:10am EDT

Tue Apr 16, 11:10pm EDT

Tue Apr 16, 10:10pm EDT

Tue Apr 16, 9:10pm EDT

Tue Apr 16, 8:10pm EDT

Tue Apr 16, 7:10pm EDT

Tue Apr 16, 6:10pm EDT

Tue Apr 16, 5:10pm EDT

Tue Apr 16, 4:10pm EDT

Tue Apr 16, 3:10pm EDT

Tue Apr 16, 2:10pm EDT

Tue Apr 16, 1:10pm EDT

Tue Apr 16, 12:10pm EDT

Tue Apr 16, 11:10am EDT

Tue Apr 16, 10:10am EDT

Tue Apr 16, 9:10am EDT

Tue Apr 16, 8:10am EDT

Tue Apr 16, 7:10am EDT

Tue Apr 16, 6:10am EDT

Tue Apr 16, 5:10am EDT

Tue Apr 16, 4:10am EDT

Tue Apr 16, 3:10am EDT

Tue Apr 16, 2:10am EDT

Tue Apr 16, 1:10am EDT

Tue Apr 16, 12:10am EDT

Mon Apr 15, 11:10pm EDT

Mon Apr 15, 10:10pm EDT

Mon Apr 15, 9:10pm EDT

Mon Apr 15, 8:10pm EDT

Mon Apr 15, 7:10pm EDT

Mon Apr 15, 6:10pm EDT

Mon Apr 15, 5:10pm EDT

Mon Apr 15, 4:10pm EDT

Mon Apr 15, 3:10pm EDT

Mon Apr 15, 2:10pm EDT

Mon Apr 15, 1:10pm EDT

Mon Apr 15, 12:10pm EDT

Mon Apr 15, 11:10am EDT

Mon Apr 15, 10:10am EDT

Mon Apr 15, 9:10am EDT